M0JGD Weather Reports


time (UTC)temp
C
wind
direction
speed
KPH
gust
KPH
rain 1hr
cm
rain 24hr
cm
rain mn
cm
humidity
%
barometer
mb
20260505191556 13 0 0.0 0.0 0.00 0.00 0.00 58 1009.0
20260505190058 13 0 0.0 0.0 0.00 0.00 0.00 57 1009.1
20260505184605 14 0 0.0 0.0 0.00 0.00 0.00 55 1009.0
20260505183058 15 0 0.0 0.0 0.00 0.00 0.00 54 1008.9
20260505181612 15 0 0.0 0.0 0.00 0.00 0.00 52 1008.8
20260505180059 15 0 0.0 0.0 0.00 0.00 0.00 51 1008.9
20260505174556 15 0 0.0 0.0 0.00 0.00 0.00 50 1008.9
20260505173055 15 0 0.0 0.0 0.00 0.00 0.00 50 1009.0
20260505171556 15 0 0.0 0.0 0.00 0.00 0.00 50 1008.9
20260505170056 15 0 0.0 0.0 0.00 0.00 0.00 49 1009.0
20260505164603 15 0 0.0 3.2 0.00 0.00 0.00 49 1009.0
20260505163055 16 98 0.0 3.2 0.00 0.00 0.00 50 1009.1
20260505161559 16 0 0.0 3.2 0.00 0.00 0.00 49 1009.0
20260505153120 16 99 0.0 4.8 0.00 0.00 0.00 50 1009.1
20260505151600 16 0 0.0 1.6 0.00 0.00 0.00 50 1009.0
20260505140104 17 80 0.0 4.8 0.00 0.00 0.00 45 1009.2
20260505124609 18 0 1.6 6.4 0.00 0.00 0.00 51 1009.5
20260505123102 17 90 0.0 4.8 0.00 0.00 0.00 53 1009.5
20260505121611 16 69 0.0 4.8 0.00 0.00 0.00 55 1009.6
20260505120107 15 94 0.0 6.4 0.00 0.00 0.00 59 1009.7
20260505114557 16 64 0.0 3.2 0.00 0.00 0.00 60 1009.8
20260505113113 15 0 0.0 4.8 0.00 0.00 0.00 60 1009.7
20260505111552 15 84 0.0 4.8 0.00 0.00 0.00 62 1009.7
20260505101557 15 5 0.0 4.8 0.00 0.00 0.00 63 1009.9
20260505100057 15 0 1.6 6.4 0.00 0.00 0.00 65 1010.0
20260505094554 15 86 1.6 9.7 0.00 0.00 0.00 63 1010.0
20260505093105 14 98 1.6 16.1 0.00 0.00 0.00 63 1010.1
20260505091554 14 0 0.0 4.8 0.00 0.00 0.00 66 1010.3
20260505090056 13 0 3.2 9.7 0.00 0.00 0.00 66 1010.3
20260505084556 13 0 1.6 6.4 0.00 0.00 0.00 67 1010.3
20260505083104 13 78 1.6 6.4 0.00 0.00 0.00 68 1010.3
20260505081559 13 59 0.0 4.8 0.00 0.00 0.00 70 1010.3
20260505080108 12 0 1.6 8.0 0.00 0.00 0.00 72 1010.4
20260505074554 12 59 1.6 4.8 0.00 0.00 0.00 78 1010.4
20260505073100 12 0 0.0 4.8 0.00 0.00 0.00 81 1010.4
20260505071554 12 57 0.0 0.0 0.00 0.00 0.00 84 1010.3
20260505070058 11 0 0.0 4.8 0.00 0.00 0.00 86 1010.4
20260505064601 11 345 0.0 1.6 0.00 0.00 0.00 87 1010.4
20260505063102 10 0 0.0 3.2 0.00 0.00 0.00 87 1010.7
20260505061600 10 0 0.0 0.0 0.00 0.00 0.00 88 1010.8
20260505060100 10 0 0.0 3.2 0.00 0.00 0.00 89 1010.7
20260505054556 10 0 0.0 0.0 0.00 0.00 0.00 89 1010.6
20260505053115 10 0 0.0 0.0 0.00 0.00 0.00 90 1010.7
20260505051555 10 0 0.0 0.0 0.00 0.00 0.00 90 1010.5
20260505050107 10 0 0.0 0.0 0.00 0.00 0.00 90 1010.4
20260505041555 10 0 0.0 3.2 0.00 0.00 0.00 90 1010.7
20260505040057 10 0 0.0 0.0 0.00 0.00 0.00 90 1010.8
20260505034615 10 0 0.0 3.2 0.00 0.00 0.00 90 1011.1
20260505033055 10 0 0.0 0.0 0.00 0.00 0.00 90 1011.1
20260505031556 10 0 0.0 0.0 0.00 0.00 0.00 90 1011.2
20260505030054 10 0 0.0 0.0 0.00 0.00 0.00 90 1011.2
20260505024554 10 0 0.0 0.0 0.00 0.00 0.00 90 1011.1
20260505023055 10 0 0.0 0.0 0.00 0.00 0.00 90 1011.0
20260505021553 10 0 0.0 0.0 0.00 0.00 0.00 90 1011.1
20260505020058 11 0 0.0 0.0 0.00 0.00 0.00 90 1011.2
20260505014556 11 0 0.0 0.0 0.00 0.00 0.00 90 1011.2
20260505013055 11 0 0.0 0.0 0.00 0.00 0.00 90 1011.4
20260505011609 11 0 0.0 0.0 0.00 0.00 0.00 90 1011.6
20260505010056 11 0 0.0 0.0 0.00 0.00 0.00 90 1011.5
20260505004605 11 0 0.0 0.0 0.00 0.00 0.00 90 1011.7
20260505003057 11 0 0.0 0.0 0.00 0.00 0.00 90 1011.8
20260505001617 11 0 0.0 0.0 0.00 0.00 0.00 90 1012.0
20260505000107 11 0 0.0 0.0 0.00 0.00 0.00 90 1012.2
20260504234557 11 0 0.0 0.0 0.00 0.00 0.00 90 1012.0
20260504233110 11 0 0.0 0.0 0.00 0.00 0.00 90 1012.0
20260504231555 11 0 0.0 0.0 0.00 0.00 0.00 90 1011.9
20260504230056 11 0 0.0 0.0 0.00 0.00 0.00 91 1011.8
20260504224553 11 0 0.0 0.0 0.00 0.00 0.00 91 1011.9
20260504223053 11 0 0.0 0.0 0.00 0.00 0.00 91 1012.2
20260504221555 11 0 0.0 0.0 0.00 0.00 0.00 91 1012.2
20260504220101 11 0 0.0 0.0 0.00 0.00 0.00 91 1012.3
20260504214600 11 0 0.0 0.0 0.00 0.00 0.00 90 1012.3
20260504213054 11 0 0.0 0.0 0.00 0.00 0.00 90 1012.1
20260504211552 11 0 0.0 0.0 0.00 0.00 0.00 90 1012.2
20260504210059 11 0 0.0 0.0 0.00 0.00 0.00 90 1012.3
20260504204557 11 0 0.0 0.0 0.00 0.00 0.00 90 1012.4
20260504203058 11 0 0.0 0.0 0.00 0.00 0.00 89 1012.3
20260504201600 11 0 0.0 0.0 0.00 0.00 0.00 88 1012.1
20260504200101 11 0 0.0 0.0 0.00 0.00 0.00 88 1012.0
20260504194604 12 0 0.0 0.0 0.00 0.00 0.00 88 1011.9
20260504193102 12 0 0.0 0.0 0.00 0.00 0.00 87 1011.8